GW1306 Weather Reports


time (UTC)temp
C
wind
direction
speed
KPH
gust
KPH
rain 1hr
cm
rain 24hr
cm
rain mn
cm
humidity
%
barometer
mb
20260510150124 22 81 0.0 0.0 0.00 0.00 0.00 62 1016.2
20260510145621 22 218 0.0 1.6 0.00 0.00 0.00 63 1016.2
20260510145117 21 91 0.0 0.0 0.00 0.00 0.00 65 1015.9
20260510144613 21 78 0.0 0.0 0.00 0.00 0.00 66 1016.1
20260510144109 21 74 0.0 0.0 0.00 0.00 0.00 72 1015.9
20260510143605 21 81 0.0 1.6 0.00 0.00 0.00 71 1015.9
20260510143102 20 144 0.0 1.6 0.00 0.00 0.00 71 1016.0
20260510142558 20 72 0.0 0.0 0.00 0.00 0.00 72 1015.9
20260510142055 21 76 0.0 0.0 0.00 0.00 0.00 69 1015.7
20260510141552 21 78 0.0 0.0 0.00 0.00 0.00 68 1015.8
20260510141050 20 74 0.0 0.0 0.00 0.00 0.00 69 1015.8
20260510140546 20 124 0.0 1.6 0.00 0.00 0.00 71 1016.0
20260510140045 20 233 0.0 1.6 0.00 0.00 0.00 71 1016.2
20260510135541 20 80 0.0 0.0 0.00 0.00 0.00 72 1016.0
20260510135038 19 81 1.6 1.6 0.00 0.00 0.00 72 1016.1
20260510134535 19 81 0.0 0.0 0.00 0.00 0.00 73 1016.0
20260510134032 18 72 0.0 0.0 0.00 0.00 0.00 73 1016.1
20260510133527 18 85 0.0 0.0 0.00 0.00 0.00 78 1016.0
20260510133024 18 85 0.0 0.0 0.00 0.00 0.00 79 1015.9
20260510132521 18 114 0.0 0.0 0.00 0.00 0.00 80 1015.8
20260510132017 18 90 0.0 0.0 0.00 0.00 0.00 78 1015.8
20260510131515 19 90 0.0 0.0 0.00 0.00 0.00 76 1016.1
20260510131012 19 91 0.0 0.0 0.00 0.00 0.00 76 1016.1
20260510130508 19 91 0.0 0.0 0.00 0.00 0.00 78 1016.0
20260510130006 20 89 0.0 1.6 0.00 0.00 0.00 75 1016.1
20260510125502 16 134 0.0 0.0 0.00 0.00 0.00 85 1016.3
20260510124958 16 135 0.0 0.0 0.00 0.00 0.00 86 1016.4
20260510124455 15 136 0.0 0.0 0.00 0.00 0.00 87 1016.3
20260510123952 15 136 0.0 0.0 0.00 0.00 0.00 90 1016.2
20260510123447 15 137 0.0 0.0 0.00 0.00 0.00 92 1016.4
20260510122944 14 137 0.0 0.0 0.00 0.00 0.00 92 1016.4
20260510122439 14 136 0.0 0.0 0.00 0.00 0.00 93 1016.4
20260510121935 13 136 0.0 0.0 0.00 0.00 0.00 94 1016.4
20260510121433 13 136 0.0 0.0 0.00 0.00 0.00 94 1016.5
20260510120930 13 136 0.0 0.0 0.00 0.00 0.00 94 1016.3
20260510120427 13 137 0.0 0.0 0.00 0.00 0.00 94 1016.1
20260510115923 13 137 0.0 0.0 0.00 0.00 0.00 95 1016.1
20260510115421 12 134 0.0 0.0 0.00 0.00 0.00 97 1016.0
20260510114916 12 131 0.0 0.0 0.00 0.00 0.00 97 1016.1
20260510114413 12 126 0.0 0.0 0.00 0.00 0.00 97 1015.9
20260510113908 12 142 0.0 0.0 0.00 0.00 0.00 98 1016.0
20260510113404 12 122 0.0 0.0 0.00 0.00 0.00 99 1015.7
20260510112902 11 121 0.0 0.0 0.00 0.00 0.00 98 1015.5
20260510112359 11 121 0.0 0.0 0.00 0.00 0.00 98 1015.5
20260510111855 11 123 0.0 0.0 0.00 0.00 0.00 98 1015.6
20260510111351 11 124 0.0 0.0 0.00 0.00 0.00 98 1015.7
20260510110846 11 123 0.0 0.0 0.00 0.00 0.00 98 1015.4
20260510110343 10 123 0.0 0.0 0.00 0.00 0.00 98 1015.4
20260510105840 10 123 0.0 0.0 0.00 0.00 0.00 98 1015.2
20260510105339 10 123 0.0 0.0 0.00 0.00 0.00 98 1015.3
20260510104835 10 140 0.0 0.0 0.00 0.00 0.00 98 1015.2
20260510104333 10 115 0.0 0.0 0.00 0.00 0.00 98 1014.7
20260510103829 10 111 0.0 0.0 0.00 0.00 0.00 98 1014.7
20260510103326 10 111 0.0 0.0 0.00 0.00 0.00 98 1014.5
20260510102821 10 110 0.0 0.0 0.00 0.00 0.00 98 1014.6
20260510102317 10 109 0.0 0.0 0.00 0.00 0.00 98 1014.5
20260510101815 10 121 0.0 0.0 0.00 0.00 0.00 98 1014.5
20260510101313 10 121 0.0 0.0 0.00 0.00 0.00 98 1014.4
20260510100808 10 103 0.0 0.0 0.00 0.00 0.00 98 1014.5
20260510100307 10 106 0.0 0.0 0.00 0.00 0.00 98 1014.5
20260510095802 10 106 0.0 0.0 0.00 0.00 0.00 98 1014.5
20260510095257 10 105 0.0 0.0 0.00 0.00 0.00 98 1014.5
20260510094756 10 106 0.0 0.0 0.00 0.00 0.00 98 1014.5
20260510094252 10 106 0.0 0.0 0.00 0.00 0.00 98 1014.6
20260510093748 10 108 0.0 0.0 0.00 0.00 0.00 98 1014.5
20260510093245 10 107 0.0 0.0 0.00 0.00 0.00 98 1014.5
20260510092741 10 108 0.0 0.0 0.00 0.00 0.00 98 1014.5
20260510092237 11 109 0.0 0.0 0.00 0.00 0.00 98 1014.4
20260510091733 10 132 0.0 0.0 0.00 0.00 0.00 98 1014.5
20260510091231 10 149 0.0 0.0 0.00 0.00 0.00 98 1014.3
20260510090726 10 147 0.0 0.0 0.00 0.00 0.00 98 1014.4
20260510090224 10 146 0.0 0.0 0.00 0.00 0.00 98 1014.4
20260510085719 10 146 0.0 0.0 0.00 0.00 0.00 98 1014.3
20260510085214 10 144 0.0 0.0 0.00 0.00 0.00 98 1014.3
20260510084710 11 144 0.0 0.0 0.00 0.00 0.00 98 1014.2
20260510084207 11 144 0.0 0.0 0.00 0.00 0.00 98 1014.0
20260510083703 11 144 0.0 0.0 0.00 0.00 0.00 98 1013.9
20260510083156 10 145 0.0 0.0 0.00 0.00 0.00 98 1013.8
20260510082651 11 144 0.0 0.0 0.00 0.00 0.00 97 1013.8
20260510082147 11 149 1.6 1.6 0.00 0.00 0.00 97 1013.8
20260510081642 11 142 0.0 0.0 0.00 0.00 0.00 97 1013.8
20260510081138 11 144 0.0 1.6 0.00 0.00 0.00 97 1013.7
20260510080637 11 138 0.0 0.0 0.00 0.00 0.00 97 1013.6
20260510080134 11 138 0.0 0.0 0.00 0.00 0.00 97 1013.4
20260510075631 11 136 0.0 0.0 0.00 0.00 0.00 97 1013.4
20260510075129 11 133 0.0 0.0 0.00 0.00 0.00 97 1013.5
20260510074625 11 131 0.0 0.0 0.00 0.00 0.00 97 1013.2
20260510074121 11 131 0.0 0.0 0.00 0.00 0.00 97 1013.3
20260510073617 11 131 0.0 0.0 0.00 0.00 0.00 97 1013.3
20260510073114 11 140 0.0 1.6 0.00 0.00 0.00 97 1013.3
20260510072611 11 124 0.0 0.0 0.00 0.00 0.00 97 1013.2
20260510072107 11 123 0.0 0.0 0.00 0.00 0.00 97 1013.3
20260510071603 11 124 0.0 0.0 0.00 0.00 0.00 97 1013.3
20260510071101 11 121 0.0 0.0 0.00 0.00 0.00 96 1013.3
20260510070557 11 117 0.0 0.0 0.00 0.00 0.00 96 1013.2
20260510070055 11 115 0.0 0.0 0.00 0.00 0.00 96 1013.1
20260510065551 11 115 0.0 0.0 0.00 0.00 0.00 96 1013.1
20260510065047 11 115 0.0 0.0 0.00 0.00 0.00 96 1013.0
20260510064543 11 115 0.0 0.0 0.00 0.00 0.00 96 1013.0
20260510064040 11 115 0.0 0.0 0.00 0.00 0.00 96 1012.8
20260510063537 11 116 0.0 0.0 0.00 0.00 0.00 96 1012.9
20260510063035 11 114 0.0 0.0 0.00 0.00 0.00 96 1013.2
20260510062530 12 125 0.0 0.0 0.00 0.00 0.00 96 1013.0
20260510062026 12 125 0.0 0.0 0.00 0.00 0.00 96 1012.9
20260510061522 12 125 0.0 0.0 0.00 0.00 0.00 96 1012.9
20260510061019 12 125 0.0 0.0 0.00 0.00 0.00 96 1013.0
20260510060515 12 127 0.0 0.0 0.00 0.00 0.00 96 1013.0
20260510060012 12 127 0.0 1.6 0.00 0.00 0.00 96 1012.9
20260510055508 12 87 0.0 0.0 0.00 0.00 0.00 96 1013.0
20260510055006 12 87 0.0 0.0 0.00 0.00 0.00 96 1013.1
20260510054501 12 87 0.0 0.0 0.00 0.00 0.00 96 1013.1
20260510053956 12 84 0.0 0.0 0.00 0.00 0.00 95 1013.0
20260510053451 12 84 0.0 0.0 0.00 0.00 0.00 95 1013.3
20260510052948 12 84 0.0 0.0 0.00 0.00 0.00 95 1013.0
20260510052444 12 84 0.0 0.0 0.00 0.00 0.00 95 1013.3
20260510051941 12 84 0.0 0.0 0.00 0.00 0.00 94 1013.0
20260510051437 12 84 0.0 0.0 0.00 0.00 0.00 94 1013.1
20260510050933 12 84 0.0 0.0 0.00 0.00 0.00 94 1013.2
20260510050430 12 84 0.0 0.0 0.00 0.00 0.00 94 1013.1
20260510045928 12 84 0.0 0.0 0.00 0.00 0.00 94 1013.2
20260510045425 13 84 0.0 0.0 0.00 0.00 0.00 94 1013.2
20260510044921 13 84 0.0 0.0 0.00 0.00 0.00 94 1013.2
20260510044418 13 84 0.0 0.0 0.00 0.00 0.00 94 1013.3
20260510043915 13 84 0.0 0.0 0.00 0.00 0.00 94 1013.4
20260510043411 13 84 0.0 0.0 0.00 0.00 0.00 94 1013.2
20260510042909 13 84 0.0 0.0 0.00 0.00 0.00 94 1013.4
20260510042405 13 84 0.0 1.6 0.00 0.00 0.00 94 1013.3
20260510041901 13 84 0.0 0.0 0.00 0.00 0.00 93 1013.3
20260510041358 13 77 0.0 0.0 0.00 0.00 0.00 93 1013.1
20260510040855 13 77 0.0 0.0 0.00 0.00 0.00 92 1013.2
20260510040352 13 77 0.0 0.0 0.00 0.00 0.00 92 1012.9
20260510035848 13 77 0.0 0.0 0.00 0.00 0.00 92 1013.1
20260510035344 13 77 0.0 0.0 0.00 0.00 0.00 92 1013.2
20260510034839 13 77 0.0 0.0 0.00 0.00 0.00 93 1013.1
20260510034338 13 78 0.0 0.0 0.00 0.00 0.00 92 1013.1
20260510033834 13 77 0.0 0.0 0.00 0.00 0.00 92 1012.9
20260510033330 14 77 0.0 0.0 0.00 0.00 0.00 92 1013.1
20260510032827 14 78 0.0 0.0 0.00 0.00 0.00 91 1013.0
20260510032324 14 78 0.0 0.0 0.00 0.00 0.00 91 1013.3
20260510031819 14 77 0.0 0.0 0.00 0.00 0.00 91 1013.0
20260510031315 14 77 0.0 0.0 0.00 0.00 0.00 91 1013.0
20260510030809 14 77 0.0 0.0 0.00 0.00 0.00 90 1012.9
20260510030306 14 78 0.0 0.0 0.00 0.00 0.00 90 1012.8
20260510025804 14 78 0.0 0.0 0.00 0.00 0.00 89 1012.7
20260510025301 15 77 0.0 0.0 0.00 0.00 0.00 89 1012.6
20260510024757 15 78 0.0 0.0 0.00 0.00 0.00 88 1012.7
20260510024254 15 77 0.0 0.0 0.00 0.00 0.00 88 1012.9
20260510023750 15 77 0.0 0.0 0.00 0.00 0.00 87 1012.9
20260510023247 15 77 0.0 0.0 0.00 0.00 0.00 87 1012.9
20260510022743 15 77 0.0 0.0 0.00 0.00 0.00 87 1013.0
20260510022244 15 77 0.0 0.0 0.00 0.00 0.00 86 1012.8
20260510021743 15 77 0.0 0.0 0.00 0.00 0.00 86 1012.8
20260510021241 15 77 0.0 0.0 0.00 0.00 0.00 86 1012.9
20260510020736 15 77 0.0 0.0 0.00 0.00 0.00 85 1012.7
20260510020237 15 77 0.0 0.0 0.00 0.00 0.00 85 1012.9
20260510015733 16 77 0.0 0.0 0.00 0.00 0.00 85 1012.7
20260510015230 16 77 0.0 0.0 0.00 0.00 0.00 85 1012.8
20260510014724 16 77 0.0 0.0 0.00 0.00 0.00 85 1012.7
20260510014222 16 78 0.0 0.0 0.00 0.00 0.00 86 1012.5
20260510013718 16 78 0.0 0.0 0.00 0.00 0.00 87 1012.5
20260510013213 16 77 0.0 0.0 0.00 0.00 0.00 87 1012.6
20260510012708 16 78 0.0 0.0 0.00 0.00 0.00 87 1012.5
20260510012203 16 78 0.0 0.0 0.00 0.00 0.00 87 1012.4
20260510011658 16 78 0.0 0.0 0.00 0.00 0.00 87 1012.3
20260510011149 16 77 0.0 0.0 0.00 0.00 0.00 86 1012.2
20260510010644 16 78 0.0 0.0 0.00 0.00 0.00 86 1012.4
20260510010142 16 78 0.0 0.0 0.00 0.00 0.00 86 1012.4
20260510005638 16 78 0.0 0.0 0.00 0.00 0.00 85 1012.3
20260510005135 16 78 0.0 0.0 0.00 0.00 0.00 84 1012.3
20260510004633 16 78 0.0 0.0 0.00 0.00 0.00 83 1012.2
20260510004131 16 78 0.0 0.0 0.00 0.00 0.00 83 1012.2
20260510003628 16 78 0.0 0.0 0.00 0.00 0.00 82 1011.9
20260510003124 16 78 0.0 0.0 0.00 0.00 0.00 82 1011.9
20260510002624 17 78 0.0 0.0 0.00 0.00 0.00 81 1011.9
20260510002121 17 78 0.0 0.0 0.00 0.00 0.00 81 1011.9
20260510001618 17 78 0.0 0.0 0.00 0.00 0.00 80 1012.1
20260510001117 17 78 0.0 0.0 0.00 0.00 0.00 80 1011.8
20260510000616 17 78 0.0 0.0 0.00 0.00 0.00 79 1011.8
20260510000114 17 78 0.0 0.0 0.00 0.00 0.00 78 1012.0
20260509235610 17 78 0.0 0.0 0.00 0.00 0.00 78 1012.0
20260509235107 17 78 0.0 0.0 0.00 0.00 0.00 78 1011.8
20260509234603 17 78 0.0 0.0 0.00 0.00 0.00 77 1011.7
20260509234101 18 78 0.0 0.0 0.00 0.00 0.00 75 1011.7
20260509233558 18 78 0.0 0.0 0.00 0.00 0.00 74 1011.6
20260509233055 18 75 0.0 0.0 0.00 0.00 0.00 74 1011.5
20260509232552 18 75 0.0 0.0 0.00 0.00 0.00 74 1011.4
20260509232049 18 75 0.0 0.0 0.00 0.00 0.00 74 1011.6
20260509231545 18 75 0.0 0.0 0.00 0.00 0.00 73 1011.5
20260509231043 18 75 0.0 0.0 0.00 0.00 0.00 73 1011.3
20260509230539 18 75 0.0 0.0 0.00 0.00 0.00 74 1011.3
20260509230037 18 75 0.0 0.0 0.00 0.00 0.00 73 1011.2
20260509225532 18 75 0.0 0.0 0.00 0.00 0.00 72 1011.3
20260509225028 18 75 0.0 0.0 0.00 0.00 0.00 73 1011.3
20260509224524 18 75 0.0 0.0 0.00 0.00 0.00 73 1011.6
20260509224020 18 75 0.0 1.6 0.00 0.00 0.00 73 1011.6
20260509223517 18 65 0.0 1.6 0.00 0.00 0.00 73 1011.6
20260509223016 18 65 0.0 0.0 0.00 0.00 0.00 72 1011.7
20260509222511 18 65 0.0 0.0 0.00 0.00 0.00 72 1011.6
20260509222007 18 65 0.0 0.0 0.00 0.00 0.00 70 1011.6
20260509221503 18 65 1.6 1.6 0.00 0.00 0.00 71 1011.5
20260509220959 19 65 0.0 1.6 0.00 0.00 0.00 71 1011.5
20260509220455 19 65 1.6 1.6 0.00 0.00 0.00 71 1011.4
20260509215951 19 73 0.0 1.6 0.00 0.00 0.00 69 1011.4
20260509215447 19 73 0.0 1.6 0.00 0.00 0.00 70 1011.5
20260509214945 20 74 1.6 1.6 0.00 0.00 0.00 70 1011.6
20260509214442 20 74 1.6 1.6 0.00 0.00 0.00 70 1011.7
20260509213938 20 75 0.0 1.6 0.00 0.00 0.00 71 1011.6
20260509213434 20 75 0.0 1.6 0.00 0.00 0.00 69 1011.4
20260509212931 20 75 1.6 1.6 0.00 0.00 0.00 70 1011.5
20260509212429 20 75 0.0 0.0 0.00 0.00 0.00 70 1011.5
20260509211925 20 75 0.0 0.0 0.00 0.00 0.00 72 1011.6
20260509211420 20 69 0.0 0.0 0.00 0.00 0.00 70 1011.3
20260509210917 20 69 0.0 1.6 0.00 0.00 0.00 70 1011.5
20260509210415 20 69 1.6 1.6 0.00 0.00 0.00 70 1011.5
20260509205910 20 69 1.6 1.6 0.00 0.00 0.00 71 1011.4
20260509205409 20 69 0.0 1.6 0.00 0.00 0.00 71 1011.5
20260509204906 20 69 1.6 1.6 0.00 0.00 0.00 71 1011.4
20260509204402 20 69 0.0 0.0 0.00 0.00 0.00 71 1011.2
20260509203859 19 69 0.0 0.0 0.00 0.00 0.00 72 1011.2
20260509203355 19 68 0.0 0.0 0.00 0.00 0.00 74 1011.2
20260509202852 19 68 0.0 1.6 0.00 0.00 0.00 73 1011.4
20260509202348 20 69 0.0 1.6 0.00 0.00 0.00 71 1011.4
20260509201843 19 69 1.6 1.6 0.00 0.00 0.00 72 1011.6
20260509201339 19 69 0.0 1.6 0.00 0.00 0.00 73 1011.9
20260509200835 19 69 1.6 1.6 0.00 0.00 0.00 72 1011.8
20260509200326 19 69 0.0 1.6 0.00 0.00 0.00 72 1011.9
20260509195823 19 69 1.6 1.6 0.00 0.00 0.00 72 1011.9
20260509195322 18 70 0.0 1.6 0.00 0.00 0.00 74 1012.2
20260509194822 18 70 1.6 1.6 0.00 0.00 0.00 77 1012.0
20260509194318 18 70 0.0 1.6 0.00 0.00 0.00 77 1012.2
20260509193815 18 70 0.0 0.0 0.00 0.00 0.00 74 1012.3
20260509193315 18 70 0.0 0.0 0.00 0.00 0.00 77 1012.1
20260509192811 18 70 0.0 0.0 0.00 0.00 0.00 79 1012.4
20260509192307 18 70 1.6 1.6 0.00 0.00 0.00 79 1012.3
20260509191802 18 71 0.0 0.0 0.00 0.00 0.00 79 1012.4
20260509191259 18 71 0.0 0.0 0.00 0.00 0.00 80 1012.3
20260509190755 17 71 0.0 0.0 0.00 0.00 0.00 82 1012.7
20260509190252 17 71 1.6 1.6 0.00 0.00 0.00 84 1012.6
20260509185749 17 72 0.0 0.0 0.00 0.00 0.00 81 1012.8
20260509185245 17 72 0.0 0.0 0.00 0.00 0.00 81 1012.8
20260509184743 17 72 0.0 0.0 0.00 0.00 0.00 78 1012.7
20260509184241 17 72 0.0 0.0 0.00 0.00 0.00 79 1012.6
20260509183737 17 72 0.0 0.0 0.00 0.00 0.00 79 1012.6
20260509183232 18 72 0.0 0.0 0.00 0.00 0.00 77 1012.8
20260509182727 18 72 0.0 0.0 0.00 0.00 0.00 77 1012.8
20260509182226 18 72 0.0 0.0 0.00 0.00 0.00 76 1013.0
20260509181723 17 72 0.0 0.0 0.00 0.00 0.00 75 1013.1
20260509181220 17 72 0.0 0.0 0.00 0.00 0.00 77 1013.2
20260509180717 17 72 0.0 0.0 0.00 0.00 0.00 76 1013.1
20260509180213 17 71 0.0 0.0 0.00 0.00 0.00 75 1013.2
20260509175710 17 71 0.0 0.0 0.00 0.00 0.00 74 1013.4
20260509175206 17 71 0.0 0.0 0.00 0.00 0.00 77 1013.1
20260509174702 17 71 0.0 0.0 0.00 0.00 0.00 77 1013.2
20260509174157 17 71 0.0 0.0 0.00 0.00 0.00 76 1013.3
20260509173654 17 71 0.0 0.0 0.00 0.00 0.00 77 1013.3
20260509173150 17 71 0.0 1.6 0.00 0.00 0.00 77 1013.4
20260509172646 17 71 0.0 0.0 0.00 0.00 0.00 77 1013.3
20260509172142 17 71 0.0 0.0 0.00 0.00 0.00 78 1013.5
20260509171638 17 71 0.0 0.0 0.00 0.00 0.00 76 1013.4
20260509171134 17 71 1.6 1.6 0.00 0.00 0.00 75 1013.4
20260509170631 17 71 0.0 1.6 0.00 0.00 0.00 75 1013.3
20260509170127 17 71 0.0 1.6 0.00 0.00 0.00 75 1013.4
20260509165626 17 71 0.0 1.6 0.00 0.00 0.00 75 1013.2
20260509165122 17 71 0.0 0.0 0.00 0.00 0.00 75 1013.3
20260509164617 17 71 0.0 0.0 0.00 0.00 0.00 75 1013.1
20260509164114 17 71 0.0 1.6 0.00 0.00 0.00 73 1013.5
20260509163612 17 72 0.0 0.0 0.00 0.00 0.00 73 1013.5
20260509163107 17 71 0.0 0.0 0.00 0.00 0.00 71 1013.3
20260509162605 17 71 1.6 1.6 0.00 0.00 0.00 73 1013.4
20260509162100 17 72 0.0 1.6 0.00 0.00 0.00 71 1013.4
20260509161557 18 72 0.0 0.0 0.00 0.00 0.00 70 1013.6
20260509161056 18 72 0.0 0.0 0.00 0.00 0.00 70 1013.6
20260509160553 18 12 1.6 1.6 0.00 0.00 0.00 69 1013.5
20260509160043 18 80 0.0 0.0 0.00 0.00 0.00 68 1013.5
20260509155539 20 147 1.6 1.6 0.00 0.00 0.00 65 1013.6
20260509155035 20 261 0.0 0.0 0.00 0.00 0.00 63 1013.4
20260509154531 20 61 3.2 3.2 0.00 0.00 0.00 63 1013.5
20260509154030 20 65 1.6 1.6 0.00 0.00 0.00 63 1013.4
20260509153526 20 88 0.0 1.6 0.00 0.00 0.00 63 1013.6
20260509153023 19 107 1.6 1.6 0.00 0.00 0.00 66 1013.8
20260509152519 19 67 3.2 3.2 0.00 0.00 0.00 65 1013.6
20260509152015 18 233 1.6 1.6 0.00 0.00 0.00 67 1013.8
20260509151512 18 84 0.0 0.0 0.00 0.00 0.00 65 1014.0
20260509151010 18 283 0.0 0.0 0.00 0.00 0.00 67 1014.0
20260509150507 18 139 0.0 1.6 0.00 0.00 0.00 66 1014.2